Columbus, MS

10:01 AM CST on December 10, 2016 (GMT -0600)
Columbus Air Force Base

Weather History for KCBM - January, 2013

Change the Weather History Date:

Wednesday, January 16, 2013

  Actual Average Record
Temperature  
Mean Temperature 36 °F -  
Max Temperature 37 °F 51 °F 68 °F (2000)
Min Temperature 35 °F 32 °F 14 °F (2009)
Degree Days  
Heating Degree Days 29    
Moisture  
Dew Point 35 °F    
Average Humidity 94    
Maximum Humidity 100    
Minimum Humidity 87    
Precipitation  
Precipitation 0.36 in - - ()
Sea Level Pressure  
Sea Level Pressure 30.09 in    
Wind  
Wind Speed 9 mph (NNW)    
Max Wind Speed 14 mph    
Max Gust Speed -    
Visibility 9 miles    
Events Rain    
Averages and records for this station are not official NWS values.
T = Trace of Precipitation, MM = Missing Value Source: NWS Daily Summary

Daily Weather History Graph

Daily Weather History Graph

Search for Another Location

Airport or City:

Trip Planner

Search our weather history database for the weather conditions in past years. The results will help you decide how hot, cold, wet, or windy it might be!

Date:

Astronomy

Jan. 16, 2013 Rise Set
Actual Time 6:57 AM CST 5:09 PM CST
Civil Twilight 6:30 AM CST 5:36 PM CST
Nautical Twilight 6:00 AM CST 6:07 PM CST
Astronomical Twilight 5:30 AM CST 6:37 PM CST
Moon 9:52 AM CST (1/16) 10:41 PM CST (1/16)
Length of Visible Light 11h 05m
Length of Day
10h 11m
Waxing Crescent, 28% of the Moon is Illuminated
Jan 16
Waxing Crescent
Jan 18
First Quarter
Jan 26
Full
Feb 3
Last Quarter
Feb 10
New

Hourly Weather History & Observations

Time (CST) Temp. Windchill Dew Point Humidity Pressure Visibility Wind Dir Wind Speed Gust Speed Precip Events Conditions
12:38 AM 35.6 °F 28.0 °F 33.8 °F 93% 30.06 in 10.0 mi WNW 10.4 mph - N/A Rain Light Rain
12:52 AM 35.6 °F 28.0 °F 35.6 °F 100% 30.05 in 8.0 mi NW 10.4 mph - N/A Rain Light Rain
12:55 AM 36.1 °F 29.9 °F 34.7 °F 94% 30.06 in 7.0 mi NW 8.1 mph - 0.04 in Rain Light Rain
12:56 AM 35.6 °F 29.9 °F 35.6 °F 100% 30.06 in 7.0 mi NW 6.9 mph - N/A Rain Light Rain
1:01 AM 35.6 °F 29.9 °F 33.8 °F 93% 30.07 in 6.0 mi NW 6.9 mph - N/A Rain Light Rain
1:12 AM 35.6 °F 29.2 °F 35.6 °F 100% 30.07 in 5.0 mi NW 8.1 mph - N/A Rain Rain
1:15 AM 35.6 °F 29.2 °F 35.6 °F 100% 30.07 in 6.0 mi NW 8.1 mph - N/A Rain Light Rain
1:42 AM 35.6 °F 29.2 °F 33.8 °F 93% 30.06 in 8.0 mi NW 8.1 mph - N/A Rain Rain
1:45 AM 35.6 °F 28.0 °F 33.8 °F 93% 30.06 in 8.0 mi NW 10.4 mph - N/A Rain Rain
1:51 AM 35.6 °F - 33.8 °F 93% 30.05 in 9.0 mi North - - N/A Rain Light Rain
1:55 AM 35.8 °F - 34.3 °F 94% 30.05 in 10.0 mi North - - 0.08 in Rain Light Rain
2:46 AM 35.6 °F 29.2 °F 33.8 °F 93% 30.06 in 10.0 mi NNW 8.1 mph - N/A   Overcast
2:50 AM 35.6 °F 28.6 °F 33.8 °F 93% 30.05 in 10.0 mi NNW 9.2 mph - N/A Rain Light Rain
2:55 AM 35.6 °F 29.2 °F 34.3 °F 95% 30.06 in 10.0 mi NNW 8.1 mph - 0.02 in Rain Light Rain
3:03 AM 35.6 °F 29.9 °F 33.8 °F 93% 30.05 in 10.0 mi NNW 6.9 mph - N/A Rain Light Rain
3:08 AM 35.6 °F 29.2 °F 33.8 °F 93% 30.05 in 10.0 mi NNW 8.1 mph - N/A Rain Light Rain
3:30 AM 35.6 °F 29.9 °F 33.8 °F 93% 30.06 in 10.0 mi NW 6.9 mph - N/A   Overcast
3:31 AM 35.6 °F 29.2 °F 33.8 °F 93% 30.06 in 10.0 mi NW 8.1 mph - N/A Rain Light Rain
3:55 AM 35.4 °F 28.4 °F 33.8 °F 94% 30.07 in 10.0 mi NW 9.2 mph - 0.00 in Rain Light Rain
4:48 AM 35.6 °F 29.2 °F 33.8 °F 93% 30.07 in 9.0 mi NW 8.1 mph - N/A Rain Light Rain
4:54 AM 35.6 °F 28.6 °F 33.8 °F 93% 30.07 in 10.0 mi NW 9.2 mph - N/A Rain Light Rain
4:55 AM 35.4 °F 28.4 °F 34.0 °F 94% 30.07 in 10.0 mi NW 9.2 mph - 0.06 in Rain Light Rain
5:19 AM 35.6 °F 28.6 °F 33.8 °F 93% 30.05 in 10.0 mi North 9.2 mph - N/A Rain Light Rain
5:30 AM 35.6 °F 28.0 °F 33.8 °F 93% 30.05 in 10.0 mi North 10.4 mph - N/A Rain Light Rain
5:39 AM 35.6 °F 29.2 °F 33.8 °F 93% 30.06 in 10.0 mi NW 8.1 mph - N/A Rain Light Rain
5:55 AM 35.2 °F 30.3 °F 34.0 °F 95% 30.09 in 6.0 mi NW 5.8 mph - 0.04 in Rain Light Rain
6:19 AM 35.6 °F 29.9 °F 33.8 °F 93% 30.09 in 10.0 mi NW 6.9 mph - N/A Rain Light Rain
6:39 AM 35.6 °F 28.6 °F 33.8 °F 93% 30.10 in 10.0 mi NW 9.2 mph - N/A Rain Light Rain
6:43 AM 35.6 °F 28.6 °F 33.8 °F 93% 30.11 in 10.0 mi NW 9.2 mph - N/A Rain Light Rain
6:55 AM 35.4 °F 27.8 °F 33.6 °F 93% 30.11 in 10.0 mi NNW 10.4 mph - 0.03 in Rain Light Rain
6:57 AM 35.6 °F 28.6 °F 33.8 °F 93% 30.11 in 10.0 mi NNW 9.2 mph - N/A Rain Light Rain
7:17 AM 35.6 °F 29.2 °F 33.8 °F 93% 30.09 in 10.0 mi North 8.1 mph - N/A   Overcast
7:55 AM 35.6 °F 29.9 °F 33.8 °F 93% 30.11 in 10.0 mi NNW 6.9 mph - 0.01 in   Overcast
8:00 AM 35.6 °F 29.2 °F 33.8 °F 93% 30.12 in 10.0 mi NNW 8.1 mph - N/A   Overcast
8:31 AM 35.6 °F 30.7 °F 33.8 °F 93% 30.12 in 10.0 mi NNW 5.8 mph - N/A   Overcast
8:35 AM 35.6 °F 29.9 °F 33.8 °F 93% 30.12 in 10.0 mi NNW 6.9 mph - N/A   Overcast
8:37 AM 35.6 °F 29.9 °F 33.8 °F 93% 30.12 in 10.0 mi NNW 6.9 mph - N/A   Overcast
8:55 AM 36.0 °F 29.6 °F 34.0 °F 93% 30.13 in 10.0 mi North 8.1 mph - 0.00 in   Overcast
8:58 AM 35.6 °F 29.2 °F 33.8 °F 93% 30.13 in 10.0 mi North 8.1 mph - N/A   Overcast
9:28 AM 35.6 °F 27.5 °F 33.8 °F 93% 30.14 in 10.0 mi WNW 11.5 mph - N/A Rain Light Rain
9:55 AM 36.1 °F 29.3 °F 34.3 °F 93% 30.16 in 10.0 mi WNW 9.2 mph - 0.00 in Rain Light Rain
9:59 AM 35.6 °F 28.6 °F 33.8 °F 93% 30.15 in 10.0 mi WNW 9.2 mph - N/A Rain Light Rain
10:30 AM 35.6 °F 28.0 °F 33.8 °F 93% 30.15 in 10.0 mi NW 10.4 mph - N/A Rain Light Rain
10:36 AM 35.6 °F 28.0 °F 33.8 °F 93% 30.14 in 10.0 mi NNW 10.4 mph - N/A Rain Light Rain
10:46 AM 35.6 °F 27.1 °F 33.8 °F 93% 30.14 in 9.0 mi NW 12.7 mph - N/A Rain Light Rain
10:54 AM 35.6 °F 28.0 °F 33.8 °F 93% 30.14 in 10.0 mi NNW 10.4 mph - N/A Rain Light Rain
10:55 AM 35.4 °F 28.4 °F 33.6 °F 93% 30.14 in 10.0 mi NNW 9.2 mph - 0.00 in Rain Light Rain
11:43 AM 35.6 °F 28.0 °F 33.8 °F 93% 30.13 in 10.0 mi NW 10.4 mph - N/A Rain Light Rain
11:55 AM 36.0 °F 29.0 °F 34.0 °F 93% 30.15 in 10.0 mi NW 9.2 mph - 0.02 in Rain Light Rain
12:11 PM 35.6 °F 28.6 °F 33.8 °F 93% 30.12 in 10.0 mi NNW 9.2 mph - N/A   Overcast
12:24 PM 35.6 °F 29.2 °F 33.8 °F 93% 30.11 in 10.0 mi NNW 8.1 mph - N/A   Overcast
12:42 PM 35.6 °F 29.9 °F 33.8 °F 93% 30.12 in 10.0 mi NNW 6.9 mph - N/A Rain Light Rain
12:43 PM 35.6 °F 29.9 °F 33.8 °F 93% 30.11 in 10.0 mi NNW 6.9 mph - N/A Rain Light Rain
12:47 PM 35.6 °F 28.6 °F 33.8 °F 93% 30.11 in 10.0 mi NNW 9.2 mph - N/A Rain Light Rain
12:55 PM 36.3 °F 30.8 °F 34.3 °F 93% 30.10 in 10.0 mi North 6.9 mph - 0.00 in Rain Light Rain
12:59 PM 35.6 °F 28.6 °F 33.8 °F 93% 30.10 in 10.0 mi NNW 9.2 mph - N/A   Overcast
1:15 PM 35.6 °F 29.2 °F 33.8 °F 93% 30.09 in 10.0 mi North 8.1 mph - N/A   Overcast
1:18 PM 35.6 °F 29.2 °F 33.8 °F 93% 30.09 in 10.0 mi North 8.1 mph - N/A Rain Light Rain
1:36 PM 37.4 °F 30.8 °F 33.8 °F 87% 30.09 in 10.0 mi NNE 9.2 mph - N/A   Overcast
1:40 PM 37.4 °F 31.4 °F 33.8 °F 87% 30.08 in 10.0 mi North 8.1 mph - N/A   Overcast
1:51 PM 37.4 °F 31.4 °F 35.6 °F 93% 30.09 in 10.0 mi NNW 8.1 mph - N/A Rain Light Rain
1:55 PM 36.7 °F 31.2 °F 34.9 °F 93% 30.08 in 10.0 mi North 6.9 mph - 0.00 in Rain Light Rain
1:56 PM 37.4 °F 32.1 °F 35.6 °F 93% 30.08 in 10.0 mi North 6.9 mph - N/A Rain Light Rain
2:01 PM 37.4 °F 33.8 °F 35.6 °F 93% 30.08 in 10.0 mi North 4.6 mph - N/A   Overcast
2:36 PM 37.4 °F 32.8 °F 35.6 °F 93% 30.08 in 10.0 mi North 5.8 mph - N/A Rain Light Rain
2:55 PM 37.0 °F 31.6 °F 35.1 °F 93% 30.08 in 10.0 mi NNW 6.9 mph - 0.00 in   Light Drizzle
2:56 PM 37.4 °F 32.1 °F 35.6 °F 93% 30.08 in 10.0 mi NNW 6.9 mph - N/A   Overcast
3:08 PM 37.4 °F 30.8 °F 35.6 °F 93% 30.09 in 10.0 mi NW 9.2 mph - N/A Rain Light Rain
3:55 PM 37.2 °F 29.1 °F 35.4 °F 93% 30.09 in 10.0 mi NNW 12.7 mph - 0.00 in Rain Light Rain
4:03 PM 37.4 °F 30.3 °F 35.6 °F 93% 30.09 in 10.0 mi NNW 10.4 mph - N/A   Overcast
4:08 PM 37.4 °F 30.3 °F 35.6 °F 93% 30.10 in 10.0 mi NW 10.4 mph - N/A Rain Light Rain
4:40 PM 37.4 °F 30.8 °F 33.8 °F 87% 30.09 in 10.0 mi NNW 9.2 mph - N/A Rain Light Rain
4:55 PM 36.7 °F 29.9 °F 34.9 °F 93% 30.09 in 10.0 mi NNW 9.2 mph - 0.00 in Rain Light Rain
5:01 PM 37.4 °F 30.3 °F 35.6 °F 93% 30.10 in 10.0 mi NNW 10.4 mph - N/A   Overcast
5:20 PM 37.4 °F 30.8 °F 35.6 °F 93% 30.10 in 10.0 mi NNW 9.2 mph - N/A Rain Light Rain
5:55 PM 36.7 °F 32.0 °F 35.1 °F 94% 30.10 in 9.0 mi North 5.8 mph - 0.00 in Rain Light Rain
6:55 PM 36.9 °F 31.4 °F 35.6 °F 95% 30.11 in 7.0 mi NW 6.9 mph - 0.02 in Rain Light Rain
7:18 PM 37.4 °F 32.1 °F 35.6 °F 93% 30.12 in 7.0 mi NW 6.9 mph - N/A Rain Light Rain
7:36 PM 37.4 °F 31.4 °F 35.6 °F 93% 30.12 in 7.0 mi NW 8.1 mph - N/A Rain Light Rain
7:46 PM 37.4 °F 32.8 °F 35.6 °F 93% 30.12 in 7.0 mi NW 5.8 mph - N/A Rain Light Rain
7:55 PM 37.0 °F 31.6 °F 35.8 °F 95% 30.12 in 8.0 mi NW 6.9 mph - 0.02 in Rain Light Rain
8:04 PM 37.4 °F 30.8 °F 35.6 °F 93% 30.12 in 10.0 mi NNW 9.2 mph - N/A   Overcast
8:16 PM 37.4 °F 31.4 °F 35.6 °F 93% 30.12 in 10.0 mi NW 8.1 mph - N/A Rain Light Rain
8:19 PM 37.4 °F 32.1 °F 35.6 °F 93% 30.12 in 10.0 mi NW 6.9 mph - N/A   Overcast
8:52 PM 37.4 °F 29.8 °F 35.6 °F 93% 30.12 in 10.0 mi NW 11.5 mph - N/A Rain Light Rain
8:55 PM 37.2 °F 30.0 °F 35.8 °F 95% 30.12 in 10.0 mi NNW 10.4 mph - 0.00 in Rain Light Rain
8:57 PM 37.4 °F 30.3 °F 35.6 °F 93% 30.12 in 10.0 mi NNW 10.4 mph - N/A Rain Light Rain
9:24 PM 37.4 °F 31.4 °F 35.6 °F 93% 30.11 in 10.0 mi NNW 8.1 mph - N/A   Overcast
9:55 PM 36.9 °F 30.7 °F 35.6 °F 95% 30.09 in 10.0 mi North 8.1 mph - 0.00 in Rain Light Rain
10:07 PM 37.4 °F 30.3 °F 35.6 °F 93% 30.09 in 10.0 mi NNW 10.4 mph - N/A   Overcast
10:55 PM 36.5 °F 27.8 °F 35.2 °F 95% 30.09 in 9.0 mi NNW 13.8 mph - 0.00 in   Overcast
11:07 PM 35.6 °F 27.5 °F 35.6 °F 100% 30.09 in 7.0 mi NW 11.5 mph - N/A   Overcast
11:10 PM 35.6 °F 27.5 °F 35.6 °F 100% 30.09 in 7.0 mi NW 11.5 mph - N/A   Overcast
11:17 PM 35.6 °F 27.1 °F 35.6 °F 100% 30.08 in 4.0 mi NNW 12.7 mph - N/A Rain Light Rain
11:25 PM 35.6 °F 27.1 °F 35.6 °F 100% 30.08 in 5.0 mi NNW 12.7 mph - N/A   Overcast
11:50 PM 35.6 °F 27.1 °F 35.6 °F 100% 30.07 in 7.0 mi NNW 12.7 mph - N/A Rain Light Rain
11:55 PM 36.1 °F 27.3 °F 34.9 °F 95% 30.07 in 7.0 mi NNW 13.8 mph - 0.02 in Rain Light Rain